[[{"header":{"parameterUnit":"m.s-1","parameterCategory":2,"la1":30.2991,"la2":30.254,"lo1":-89.0895,"lo2":-89.0444,"dy":0.0017,"dx":0.0017,"nx":28,"ny":28,"refTime":"2025-07-18T03:00:00:Z","depth":"0","parameterNumber":2,"parameterNumberName":"U-component_of_CURRENTS"},"data":[0,0,0,0,0,0,0,0,0,0,0,0,0,0,0,0,0,0,0,0,0,0,0,0,0,0,0,0,0,0,0,0,0,0,0,0,0,0,0,0,0,0,0,0,0,0,0,0,0,0,0,0,0,0,0,0,0,0,0.3424,0.3426,0,0.3554,0.3556,0.3557,0.3483,0.348,0.3476,0.3473,0.3319,0.3319,0.3318,0,0,0,0,0,0,0,0,0,0,0,0,0,0.3299,0.33,0.3424,0.3426,0.3428,0.3554,0.3556,0.3557,0.3484,0.3479,0.3475,0.3471,0.332,0.3319,0.3318,0,0,0,0,0,0,0,0,0,0,0,0,0,0.3381,0.3301,0.3423,0.3408,0.3408,0.3554,0.3556,0.3558,0.3484,0.3479,0.3474,0.347,0.332,0.3319,0.3317,0.341,0,0,0.3313,0.3312,0,0,0,0,0,0,0,0,0.3376,0.3385,0.3408,0.3409,0.341,0.35,0.3456,0.3495,0.3486,0.3453,0.3473,0.3467,0.3359,0.3354,0.339,0.3403,0.3396,0.3313,0.3312,0.3312,0.3311,0,0,0,0,0,0,0,0.337,0.338,0.3472,0.3411,0.3412,0.346,0.3464,0.3465,0.3425,0.3455,0.3451,0.3472,0.3356,0.3392,0.3385,0.3394,0.3313,0.3312,0.3311,0.331,0.3407,0.341,0,0,0,0,0,0,0.3356,0.3374,0.3468,0.3477,0.3383,0.3465,0.347,0.3474,0.3431,0.3423,0.3476,0.3468,0.3397,0.3387,0.3379,0.3459,0.3312,0.331,0.3309,0.3403,0.3407,0.3411,0,0,0,0,0,0,0.3353,0.3363,0.3463,0.3432,0.3448,0.3472,0.3478,0.3479,0.3519,0.3451,0.3435,0.3513,0.3392,0.3381,0.3361,0.3452,0.331,0.3308,0.3399,0.3405,0.3409,0.3634,0,0,0,0,0,0,0.3348,0.336,0.3372,0.343,0.3449,0.3576,0.3483,0.3485,0.354,0.3531,0.3479,0.3459,0.3388,0.3364,0.3359,0.3447,0.3307,0.3395,0.3402,0.3408,0.3623,0.3647,0.3667,0,0,0,0,0,0.3343,0.3396,0.3372,0.3384,0.3459,0.3581,0.3598,0.3595,0.3547,0.3604,0.3524,0.3461,0.3401,0.3365,0.3359,0.3449,0.3392,0.34,0.3407,0.3613,0.3642,0.3667,0,0,0,0,0,0,0.3362,0.3396,0.3369,0.3429,0.3504,0.3569,0.363,0.3627,0.3625,0.3592,0.3498,0.3477,0.3508,0.3445,0.3407,0.3495,0.3392,0.3399,0.355,0.3577,0.3599,0.3599,0.3306,0,0,0,0,0,0.337,0.3403,0.3459,0.3513,0.3553,0.3595,0.3645,0.3651,0.3657,0.3654,0.3613,0.356,0.3549,0.3526,0.3513,0.3556,0.3517,0.3611,0.3633,0.3652,0.3649,0.3683,0.3708,0.3436,0.3436,0.3436,0,0,0.3395,0.3418,0.3438,0.3519,0.3569,0.3651,0.3613,0.3713,0.3763,0.3636,0.3679,0.365,0.358,0.3625,0.3634,0.3571,0.3716,0.3662,0.3679,0.3664,0.3693,0.372,0.3743,0.3441,0.3441,0.344,0,0,0.3475,0.3486,0.3539,0.3607,0.3693,0.3728,0.3763,0.3841,0.3856,0.3907,0.3827,0.3841,0.3821,0.3801,0.3779,0.3919,0.3846,0.3926,0.4025,0.4061,0.4083,0.4102,0.4116,0.4135,0.3921,0.3922,0.3922,0,0.3518,0.3554,0.359,0.3667,0.372,0.3762,0.3844,0.3902,0.3956,0.3964,0.3932,0.393,0.391,0.393,0.3994,0.3976,0.3962,0.3932,0.4091,0.4109,0.4125,0.4134,0.4151,0.3933,0.3932,0.3931,0.393,0,0.3608,0.366,0.3721,0.3792,0.3869,0.3968,0.4032,0.4102,0.4114,0.4132,0.4178,0.4155,0.4128,0.4171,0.4131,0.4239,0.4185,0.4133,0.4026,0.4166,0.4166,0.4181,0.395,0.3946,0.3942,0.3939,0,0,0.3677,0.376,0.3778,0.3818,0.3935,0.4012,0.4114,0.4203,0.4251,0.4296,0.4334,0.4383,0.4352,0.4328,0.43,0.4358,0.4513,0.4312,0.4308,0.433,0.4581,0.4405,0.4402,0.4489,0.4492,0.4494,0.4547,0,0.3747,0.3851,0.388,0.4011,0.4089,0.4148,0.4234,0.4311,0.4366,0.4426,0.4414,0.4446,0.4411,0.4421,0.4476,0.4508,0.4556,0.4502,0.4435,0.4433,0.4264,0.4414,0.4167,0.418,0.456,0.4562,0.4563,0,0.3826,0.3883,0.3983,0.4092,0.413,0.4203,0.4323,0.4408,0.4493,0.4531,0.4544,0.4525,0.4599,0.4559,0.4643,0.4607,0.4617,0.4635,0.4636,0.4392,0.4282,0.4095,0.419,0.4109,0.4584,0.4582,0.4581,0,0.3836,0.3966,0.4022,0.4069,0.4199,0.4248,0.4313,0.4423,0.4493,0.4588,0.4634,0.4659,0.4682,0.4715,0.4727,0.4711,0.4807,0.477,0.4602,0.4588,0.432,0.4276,0.4321,0.4829,0.4829,0.4829,0.4829,0,0.3904,0.3993,0.4025,0.4074,0.4174,0.4249,0.4357,0.4449,0.4541,0.4614,0.466,0.4702,0.4734,0.4757,0.4768,0.4714,0.4819,0.4644,0.4601,0.4391,0.4355,0.4217,0.419,0.4831,0.4831,0.483,0.483,0,0.3985,0.3992,0.4087,0.4156,0.4189,0.4264,0.438,0.4463,0.4555,0.4655,0.4682,0.4762,0.4784,0.4766,0.4823,0.4742,0.4585,0.4672,0.4408,0.4332,0.4069,0.4061,0.3882,0.3782,0.4516,0.4512,0.4509,0,0.4096,0.4115,0.4122,0.4163,0.4211,0.4306,0.4382,0.4474,0.4545,0.4676,0.4713,0.475,0.4728,0.47,0.4564,0.448,0.4419,0.4227,0.4151,0.4041,0.4005,0.3898,0.3823,0.3909,0.3901,0.3895,0.3889,0,0.4307,0.4226,0.4236,0.4241,0.4302,0.4373,0.4456,0.4489,0.4587,0.464,0.4659,0.464,0.4541,0.4303,0.4176,0.4112,0.4007,0.4087,0.4055,0.3602,0.3407,0.3291,0.3896,0.3832,0.3837,0.3842,0.3845,0.3847,0.4461,0.4428,0.4326,0.4333,0.4392,0.4402,0.4381,0.4425,0.445,0.4392,0.4501,0.4316,0.4127,0.387,0.3788,0.3476,0.3562,0.3364,0.3391,0.3316,0.3126,0.3587,0.3413,0.3416,0.3419,0.3422,0.3424,0,0.4609,0.4474,0.4459,0.4384,0.4383,0.44,0.4406,0.4289,0.42,0.4129,0.4047,0.372,0.3476,0.3293,0.2991,0.2829,0.2732,0.2771,0.2612,0.2597,0.3074,0.2953,0.2569,0.2569,0.2569,0.2569,0.257,0.257,0.467,0.4567,0.4428,0.436,0.432,0.4194,0.4127,0.3931,0.3784,0.3425,0.3134,0.3047,0.295,0.2766,0.2499,0.2423,0.2309,0.2121,0.2244,0.263,0.2689,0.2746,0.263,0.2184,0.2184,0.1616,0.1611,0.1608]},{"header":{"parameterUnit":"m.s-1","parameterCategory":2,"la1":30.2991,"la2":30.254,"lo1":-89.0895,"lo2":-89.0444,"dy":0.0017,"dx":0.0017,"nx":28,"ny":28,"refTime":"2025-07-18T03:00:00:Z","depth":"0","parameterNumber":3,"parameterNumberName":"V-component_of_CURRENTS"},"data":[0,0,0,0,0,0,0,0,0,0,0,0,0,0,0,0,0,0,0,0,0,0,0,0,0,0,0,0,0,0,0,0,0,0,0,0,0,0,0,0,0,0,0,0,0,0,0,0,0,0,0,0,0,0,0,0,0,0,0.0496,0.0496,0,0.0465,0.0464,0.0464,0.0421,0.0421,0.042,0.042,0.0381,0.0381,0.038,0,0,0,0,0,0,0,0,0,0,0,0,0,0.0492,0.0492,0.0496,0.0496,0.0496,0.0465,0.0464,0.0463,0.0421,0.0421,0.042,0.0419,0.0382,0.0381,0.038,0,0,0,0,0,0,0,0,0,0,0,0,0,0.0478,0.0493,0.0496,0.0473,0.0471,0.0465,0.0464,0.0463,0.0421,0.0421,0.042,0.0419,0.0382,0.0381,0.038,0.0389,0,0,0.0378,0.0377,0,0,0,0,0,0,0,0,0.0479,0.0478,0.0477,0.0475,0.0472,0.0448,0.0449,0.0439,0.0421,0.0437,0.042,0.0419,0.0405,0.0403,0.0395,0.0387,0.0386,0.0378,0.0377,0.0377,0.0376,0,0,0,0,0,0,0,0.048,0.0479,0.0481,0.0477,0.0474,0.0455,0.0452,0.0446,0.0424,0.0436,0.0433,0.0434,0.0404,0.0396,0.0394,0.0385,0.0378,0.0377,0.0376,0.0376,0.0386,0.0386,0,0,0,0,0,0,0.0492,0.048,0.0482,0.048,0.0477,0.0456,0.0452,0.0455,0.0424,0.0419,0.0435,0.0432,0.0397,0.0395,0.0392,0.042,0.0377,0.0376,0.0375,0.0385,0.0386,0.0387,0,0,0,0,0,0,0.0492,0.0492,0.0484,0.0481,0.0479,0.0457,0.0459,0.0454,0.0456,0.0424,0.0418,0.0443,0.0397,0.0393,0.0378,0.0417,0.0375,0.0375,0.0384,0.0385,0.0386,0.0463,0,0,0,0,0,0,0.0492,0.0492,0.0499,0.0482,0.048,0.0498,0.046,0.0454,0.0458,0.0454,0.0429,0.0423,0.0396,0.0379,0.0377,0.0415,0.0374,0.0383,0.0385,0.0386,0.0459,0.0466,0.0472,0,0,0,0,0,0.0492,0.0511,0.05,0.05,0.049,0.05,0.0497,0.0476,0.0459,0.0472,0.0433,0.0425,0.0387,0.0378,0.0376,0.0415,0.0382,0.0384,0.0386,0.0456,0.0465,0.0472,0,0,0,0,0,0,0.0505,0.0509,0.0495,0.0512,0.0512,0.0494,0.0503,0.0489,0.047,0.0463,0.0425,0.0417,0.0421,0.0403,0.0394,0.0421,0.0389,0.039,0.0443,0.0451,0.0458,0.051,0.0373,0,0,0,0,0,0.0513,0.0534,0.0526,0.054,0.0543,0.0525,0.0526,0.0516,0.0497,0.0488,0.0462,0.0438,0.0427,0.0425,0.0408,0.0422,0.0417,0.0447,0.0454,0.046,0.05,0.0521,0.0534,0.0392,0.0392,0.0392,0,0,0.0517,0.0527,0.0533,0.0546,0.054,0.0561,0.0524,0.0538,0.055,0.0488,0.0489,0.0459,0.0433,0.0439,0.0443,0.0431,0.0488,0.0462,0.0467,0.0505,0.0524,0.0538,0.0551,0.0394,0.0393,0.0393,0,0,0.0553,0.0549,0.0582,0.0594,0.0606,0.0595,0.0606,0.0594,0.0583,0.0581,0.0538,0.0541,0.0509,0.0511,0.0505,0.0545,0.0518,0.0528,0.0613,0.0632,0.0645,0.0656,0.063,0.0638,0.0538,0.0538,0.0538,0,0.0562,0.0602,0.0592,0.0633,0.0652,0.0617,0.0658,0.0643,0.0624,0.0626,0.0593,0.0586,0.0559,0.0597,0.0599,0.0569,0.0547,0.0584,0.0644,0.0655,0.0665,0.0636,0.0644,0.0542,0.0541,0.0541,0.054,0,0.0619,0.0658,0.0682,0.072,0.0735,0.0767,0.0753,0.0749,0.0728,0.0718,0.0741,0.0709,0.0714,0.0702,0.0659,0.0722,0.0669,0.0645,0.0629,0.0685,0.0648,0.0656,0.0547,0.0546,0.0545,0.0544,0,0,0.0618,0.071,0.0715,0.0765,0.0791,0.0813,0.0827,0.0843,0.0866,0.0848,0.0902,0.088,0.0869,0.0864,0.0827,0.0847,0.0875,0.0778,0.0776,0.0763,0.0876,0.0802,0.0801,0.0848,0.0851,0.0853,0.0808,0,0.0668,0.0779,0.0798,0.0886,0.0942,0.0928,0.095,0.0955,0.0945,0.0978,0.0974,0.1001,0.0927,0.094,0.0951,0.091,0.0903,0.0887,0.0817,0.0816,0.0753,0.0813,0.0794,0.075,0.0815,0.0816,0.0817,0,0.0699,0.0788,0.0894,0.0999,0.1017,0.1052,0.1092,0.1114,0.1132,0.1132,0.1163,0.1141,0.1184,0.111,0.109,0.1074,0.0984,0.094,0.0936,0.0861,0.0758,0.0713,0.0761,0.0661,0.0828,0.0827,0.0826,0,0.0706,0.0839,0.0936,0.0972,0.1074,0.1107,0.1145,0.1162,0.1204,0.1245,0.1294,0.1302,0.1348,0.1269,0.1157,0.1121,0.1122,0.1058,0.0901,0.0892,0.0866,0.0851,0.0831,0.1035,0.1035,0.1035,0.1035,0,0.0746,0.0825,0.0955,0.1012,0.1119,0.1166,0.1256,0.127,0.1345,0.1437,0.1394,0.1481,0.1392,0.1364,0.1223,0.11,0.1166,0.0945,0.0899,0.0884,0.0872,0.0773,0.071,0.1033,0.1034,0.1034,0.1034,0,0.0736,0.082,0.0944,0.1082,0.1128,0.1201,0.1338,0.1409,0.1457,0.1587,0.1617,0.1644,0.1607,0.1469,0.136,0.1202,0.0998,0.0991,0.0956,0.0907,0.0653,0.0595,0.0524,0.0475,0.0826,0.0824,0.0823,0,0.0762,0.082,0.0982,0.1067,0.1139,0.1265,0.1354,0.1445,0.1543,0.1694,0.1781,0.1785,0.1803,0.1604,0.1331,0.1071,0.0951,0.0858,0.0797,0.0669,0.057,0.0524,0.0487,0.0769,0.0767,0.0766,0.0765,0,0.081,0.0839,0.0945,0.1109,0.123,0.1366,0.1517,0.1614,0.1747,0.1866,0.2021,0.2052,0.1862,0.1621,0.1248,0.106,0.0785,0.0816,0.0723,0.0573,0.0489,0.041,0.0732,0.0752,0.0753,0.0754,0.0755,0.0755,0.0845,0.0901,0.1022,0.1172,0.1309,0.1465,0.1569,0.1745,0.1918,0.2112,0.2171,0.2224,0.1881,0.1385,0.113,0.0649,0.0667,0.05,0.0449,0.0423,0.0364,0.0633,0.0574,0.0575,0.0575,0.0575,0.0575,0,0.0921,0.0972,0.1095,0.1266,0.1395,0.1461,0.1676,0.1781,0.1985,0.218,0.2308,0.2138,0.1721,0.1279,0.0639,0.0345,0.0257,0.0204,0.0165,0.0151,0.0431,0.0416,0.0275,0.0275,0.0275,0.0275,0.0275,0.0275,0.0976,0.1075,0.1116,0.1314,0.1418,0.1568,0.1677,0.1843,0.1997,0.2173,0.2197,0.2217,0.1873,0.0866,0.0229,0.0095,-0.0058,-0.0132,-0.0187,0.0021,0.0046,0.007,0.0045,-0.0173,-0.0173,-0.0431,-0.0434,-0.0436]}],[{"header":{"parameterUnit":"m.s-1","parameterCategory":2,"la1":30.2991,"la2":30.254,"lo1":-89.0895,"lo2":-89.0444,"dy":0.0017,"dx":0.0017,"nx":28,"ny":28,"refTime":"2025-07-18T03:00:00:Z","depth":"2","parameterNumber":2,"parameterNumberName":"U-component_of_CURRENTS"},"data":[0,0,0,0,0,0,0,0,0,0,0,0,0,0,0,0,0,0,0,0,0,0,0,0,0,0,0,0,0,0,0,0,0,0,0,0,0,0,0,0,0,0,0,0,0,0,0,0,0,0,0,0,0,0,0,0,0,0,0.2163,0.2162,0,0.2153,0.2153,0.2154,0.2248,0.225,0.2252,0.2254,0.2357,0.2358,0.2359,0,0,0,0,0,0,0,0,0,0,0,0,0,0.2246,0.2244,0.2163,0.2162,0.2161,0.2153,0.2153,0.2154,0.2248,0.225,0.2253,0.2255,0.2357,0.2358,0.2359,0,0,0,0,0,0,0,0,0,0,0,0,0,0.2226,0.2244,0.2163,0.2203,0.2206,0.2153,0.2153,0.2154,0.2247,0.225,0.2253,0.2256,0.2356,0.2358,0.2359,0.2305,0,0,0.2363,0.2363,0,0,0,0,0,0,0,0,0.2227,0.2224,0.2198,0.22,0.2203,0.22,0.222,0.2208,0.2246,0.2238,0.2254,0.2258,0.2308,0.2314,0.2312,0.231,0.2314,0.2363,0.2364,0.2364,0.2364,0,0,0,0,0,0,0,0.2228,0.2224,0.2165,0.2196,0.22,0.2215,0.2216,0.2218,0.2263,0.2239,0.2244,0.2232,0.2312,0.2311,0.2316,0.2316,0.2363,0.2364,0.2365,0.2365,0.2515,0.2518,0,0,0,0,0,0,0.2214,0.2225,0.2165,0.2164,0.2216,0.221,0.2212,0.2203,0.2261,0.227,0.223,0.2236,0.2307,0.2314,0.232,0.2454,0.2364,0.2365,0.2366,0.2511,0.2515,0.2519,0,0,0,0,0,0,0.2216,0.2209,0.2166,0.219,0.2185,0.2205,0.2194,0.2201,0.2288,0.2251,0.2265,0.232,0.231,0.2318,0.2398,0.2452,0.2366,0.2367,0.2508,0.2513,0.2517,0.2599,0,0,0,0,0,0,0.2218,0.221,0.2211,0.2189,0.2183,0.2184,0.219,0.2198,0.2267,0.228,0.2331,0.2338,0.2313,0.2397,0.2399,0.2452,0.2368,0.2503,0.251,0.2515,0.2592,0.2606,0.2618,0,0,0,0,0,0.2221,0.2202,0.2211,0.2204,0.2179,0.2185,0.2186,0.2213,0.227,0.2308,0.2358,0.2342,0.2438,0.24,0.2402,0.2457,0.2501,0.2508,0.2515,0.2586,0.2603,0.2617,0,0,0,0,0,0,0.2228,0.2208,0.2218,0.2192,0.2213,0.22,0.2214,0.2265,0.2332,0.2351,0.2372,0.2381,0.2457,0.2461,0.242,0.2523,0.247,0.2478,0.2524,0.254,0.2552,0.2604,0.2369,0,0,0,0,0,0.2226,0.2229,0.2214,0.2209,0.221,0.2239,0.2254,0.2276,0.2314,0.2352,0.2361,0.2406,0.2471,0.2516,0.2516,0.2584,0.2607,0.2628,0.264,0.2651,0.2699,0.2776,0.28,0.2543,0.2542,0.2542,0,0,0.2238,0.2218,0.2228,0.2214,0.2224,0.223,0.2261,0.2286,0.2333,0.2346,0.2399,0.2427,0.2494,0.255,0.2589,0.2579,0.2733,0.266,0.2669,0.2712,0.2786,0.2811,0.2833,0.2547,0.2547,0.2546,0,0,0.2246,0.2237,0.2244,0.226,0.2265,0.2256,0.2294,0.2293,0.2346,0.242,0.2433,0.2525,0.2586,0.2631,0.2688,0.2789,0.2777,0.2786,0.2919,0.2991,0.3013,0.3032,0.3073,0.3096,0.2819,0.2819,0.2819,0,0.2256,0.2263,0.2254,0.2261,0.2263,0.2289,0.2302,0.2352,0.2381,0.2449,0.2459,0.2616,0.2644,0.2799,0.284,0.282,0.2848,0.2847,0.3007,0.3027,0.3046,0.3083,0.3107,0.2824,0.2823,0.2823,0.2822,0,0.226,0.2294,0.2299,0.231,0.2302,0.2327,0.2346,0.2396,0.2467,0.2525,0.2681,0.2728,0.2858,0.287,0.2912,0.3061,0.303,0.2987,0.2962,0.3077,0.3108,0.3132,0.2831,0.2829,0.2828,0.2826,0,0,0.2252,0.2294,0.2322,0.2361,0.2335,0.2352,0.2405,0.2491,0.2616,0.2681,0.2855,0.2983,0.3039,0.3108,0.3133,0.322,0.3363,0.3189,0.319,0.3222,0.3516,0.3301,0.3305,0.3345,0.335,0.3354,0.3477,0,0.2285,0.2335,0.2318,0.2394,0.2415,0.2436,0.2488,0.2571,0.2678,0.283,0.2983,0.3128,0.3125,0.3217,0.3309,0.3331,0.3434,0.3334,0.3412,0.3415,0.3202,0.3329,0.3061,0.3132,0.35,0.3504,0.3506,0,0.2307,0.2344,0.2391,0.2478,0.2488,0.2519,0.2635,0.2684,0.2883,0.2991,0.3178,0.3282,0.3461,0.3433,0.3593,0.3528,0.357,0.3581,0.3585,0.3383,0.3244,0.3085,0.3161,0.3545,0.3542,0.3539,0.3536,0,0.2331,0.2421,0.2466,0.2488,0.2541,0.2605,0.2638,0.2761,0.2834,0.3101,0.3207,0.3434,0.3553,0.3651,0.3701,0.3677,0.3832,0.3783,0.3637,0.362,0.3411,0.3365,0.3941,0.3941,0.394,0.394,0.394,0,0.2355,0.2446,0.2519,0.2562,0.2659,0.2648,0.2783,0.2872,0.2994,0.3092,0.3287,0.3419,0.3621,0.3727,0.3764,0.3751,0.3887,0.3703,0.3658,0.3425,0.3382,0.3751,0.3727,0.3945,0.3944,0.3943,0.3942,0,0.2391,0.2434,0.2533,0.2632,0.2668,0.2737,0.2827,0.2925,0.3014,0.3144,0.3228,0.345,0.3577,0.3695,0.3851,0.3792,0.3817,0.3786,0.3479,0.3395,0.3554,0.3533,0.3671,0.3664,0.3659,0.3655,0.3651,0,0.2437,0.2467,0.2587,0.2639,0.27,0.2809,0.2859,0.2945,0.2985,0.3134,0.3165,0.3379,0.348,0.3583,0.3573,0.3589,0.3719,0.3332,0.324,0.3594,0.3538,0.3525,0.3512,0.3006,0.2998,0.2991,0.2985,0,0.2489,0.2515,0.257,0.2682,0.2764,0.2841,0.2903,0.2907,0.296,0.304,0.3115,0.3213,0.331,0.3223,0.3213,0.3185,0.3297,0.3181,0.3685,0.3074,0.2965,0.2909,0.292,0.2922,0.2929,0.2933,0.2937,0.2939,0.2517,0.2582,0.2624,0.2719,0.2803,0.2807,0.2791,0.2805,0.2807,0.2761,0.2935,0.2931,0.2981,0.2825,0.2727,0.267,0.2904,0.2801,0.2826,0.2858,0.2716,0.26,0.2463,0.2466,0.2469,0.2472,0.2474,0,0.2475,0.2562,0.2662,0.2708,0.2697,0.2793,0.2755,0.2661,0.2571,0.2584,0.2597,0.2385,0.2287,0.234,0.2142,0.2098,0.2116,0.2027,0.2056,0.2119,0.2175,0.2001,0.1558,0.1555,0.1552,0.1549,0,0,0.2459,0.2543,0.26,0.2564,0.2585,0.25,0.2434,0.2335,0.2279,0.2138,0.2079,0.22,0.228,0.1904,0.1831,0.1671,0.1891,0.1602,0.2343,0.2443,0.2496,0.2627,0.2429,0,0,0,0,0]},{"header":{"parameterUnit":"m.s-1","parameterCategory":2,"la1":30.2991,"la2":30.254,"lo1":-89.0895,"lo2":-89.0444,"dy":0.0017,"dx":0.0017,"nx":28,"ny":28,"refTime":"2025-07-18T03:00:00:Z","depth":"2","parameterNumber":3,"parameterNumberName":"V-component_of_CURRENTS"},"data":[0,0,0,0,0,0,0,0,0,0,0,0,0,0,0,0,0,0,0,0,0,0,0,0,0,0,0,0,0,0,0,0,0,0,0,0,0,0,0,0,0,0,0,0,0,0,0,0,0,0,0,0,0,0,0,0,0,0,0.0084,0.0084,0,0.0031,0.0031,0.003,0.0012,0.0012,0.0012,0.0013,0.0008,0.0008,0.0007,0,0,0,0,0,0,0,0,0,0,0,0,0,0.0117,0.0117,0.0084,0.0084,0.0083,0.0031,0.003,0.003,0.0012,0.0012,0.0012,0.0013,0.0008,0.0008,0.0007,0,0,0,0,0,0,0,0,0,0,0,0,0,0.0086,0.0117,0.0084,0.0069,0.0067,0.0031,0.003,0.0029,0.0012,0.0012,0.0013,0.0013,0.0008,0.0008,0.0007,-0.0007,0,0,0.0005,0.0005,0,0,0,0,0,0,0,0,0.0088,0.0085,0.0072,0.007,0.0068,0.003,0.004,0.002,0.0011,0.0031,0.0013,0.0013,0.002,0.0019,0.0005,-0.0007,-0.0007,0.0005,0.0005,0.0004,0.0004,0,0,0,0,0,0,0,0.0091,0.0087,0.0062,0.0071,0.0069,0.0047,0.0043,0.0036,0.0024,0.003,0.0028,0.0024,0.0019,0.0006,0.0005,-0.0007,0.0005,0.0004,0.0004,0.0004,0.0016,0.0017,0,0,0,0,0,0,0.0102,0.0089,0.0064,0.006,0.0081,0.0046,0.0042,0.004,0.0022,0.002,0.0024,0.0024,0.0006,0.0006,0.0005,0.004,0.0004,0.0004,0.0003,0.0015,0.0016,0.0017,0,0,0,0,0,0,0.0103,0.01,0.0066,0.0074,0.0069,0.0045,0.0043,0.0039,0.0023,0.0018,0.0017,0.0012,0.0007,0.0006,0.0014,0.0038,0.0003,0.0003,0.0015,0.0016,0.0017,0.0077,0,0,0,0,0,0,0.0104,0.0101,0.0102,0.0075,0.0069,0.006,0.0043,0.0038,0.002,0.0019,0.0008,0.0008,0.0007,0.0016,0.0014,0.0036,0.0002,0.0014,0.0015,0.0016,0.0074,0.008,0.0085,0,0,0,0,0,0.0105,0.011,0.0102,0.0099,0.0072,0.006,0.0055,0.0038,0.0019,0.0022,0.0017,0.0008,0.0023,0.0015,0.0013,0.0036,0.0013,0.0015,0.0016,0.0072,0.0079,0.0085,0,0,0,0,0,0,0.0116,0.0108,0.0099,0.0098,0.0086,0.0058,0.0055,0.0034,0.0027,0.0027,0.0014,0.0014,0.003,0.0021,0.0012,0.0043,0.0017,0.0018,0.006,0.0066,0.0072,0.0116,0.0002,0,0,0,0,0,0.0121,0.0128,0.011,0.0109,0.0105,0.0075,0.0065,0.0054,0.0043,0.0038,0.0034,0.0031,0.0033,0.004,0.004,0.0053,0.0046,0.0067,0.0072,0.0077,0.0111,0.0111,0.012,0.0022,0.0022,0.0022,0,0,0.0124,0.0119,0.0123,0.0112,0.0099,0.0114,0.007,0.0062,0.0078,0.004,0.0063,0.0046,0.0039,0.0062,0.0068,0.0059,0.0095,0.0079,0.0084,0.0116,0.0114,0.0124,0.0132,0.0024,0.0023,0.0023,0,0,0.0147,0.0131,0.0152,0.0152,0.0142,0.0131,0.0129,0.011,0.0105,0.0113,0.0097,0.0105,0.0095,0.0115,0.0116,0.0151,0.0119,0.0133,0.0205,0.0204,0.0212,0.022,0.0201,0.0206,0.0142,0.0142,0.0142,0,0.015,0.0179,0.0153,0.0178,0.0193,0.0145,0.0179,0.0164,0.0153,0.0164,0.0135,0.0151,0.0133,0.0184,0.0193,0.0168,0.0147,0.018,0.0212,0.022,0.0226,0.0205,0.021,0.0145,0.0145,0.0145,0.0144,0,0.0201,0.0224,0.0234,0.0262,0.0269,0.0286,0.0275,0.0275,0.0253,0.0249,0.0278,0.026,0.0283,0.0262,0.0235,0.028,0.0242,0.0213,0.0199,0.024,0.0214,0.0219,0.015,0.0149,0.0148,0.0147,0,0,0.0212,0.0264,0.0268,0.0312,0.0321,0.0338,0.0359,0.038,0.0406,0.0389,0.0445,0.043,0.0419,0.0422,0.0392,0.0385,0.039,0.032,0.0318,0.0308,0.0368,0.0297,0.0294,0.0354,0.0356,0.0357,0.0323,0,0.0264,0.034,0.0352,0.0432,0.0475,0.0461,0.0498,0.0507,0.0494,0.0532,0.0517,0.0552,0.048,0.0496,0.0482,0.0416,0.0408,0.0402,0.0326,0.0324,0.0262,0.03,0.0318,0.0286,0.0327,0.0328,0.0328,0,0.0315,0.0368,0.0456,0.0544,0.0563,0.0601,0.0654,0.0689,0.0709,0.0702,0.0726,0.0704,0.0721,0.0644,0.0582,0.0573,0.049,0.0425,0.0421,0.0349,0.0263,0.0255,0.0292,0.0335,0.0335,0.0334,0.0334,0,0.035,0.0443,0.0523,0.0552,0.0634,0.0672,0.0718,0.0741,0.08,0.0827,0.0864,0.0854,0.0879,0.078,0.0636,0.061,0.0544,0.0493,0.0358,0.0351,0.0354,0.0344,0.0463,0.0464,0.0464,0.0464,0.0464,0,0.041,0.0477,0.0549,0.0597,0.0709,0.0745,0.0848,0.0869,0.0946,0.1033,0.098,0.1036,0.091,0.0847,0.0695,0.054,0.0592,0.0394,0.035,0.0369,0.0362,0.0398,0.0391,0.0462,0.0463,0.0463,0.0463,0,0.0447,0.049,0.0593,0.0691,0.0728,0.0815,0.0951,0.1031,0.1071,0.1185,0.1212,0.1199,0.11,0.0943,0.0784,0.063,0.0475,0.0405,0.0423,0.0382,0.0267,0.0264,0.027,0.0267,0.0265,0.0263,0.0262,0,0.048,0.053,0.0651,0.0724,0.0777,0.0901,0.0993,0.1084,0.1189,0.1274,0.1361,0.1304,0.1262,0.1001,0.0734,0.0475,0.0454,0.0313,0.0273,0.0297,0.0254,0.0254,0.0253,0.0292,0.0291,0.029,0.029,0,0.0544,0.057,0.0654,0.0794,0.0905,0.1044,0.1191,0.1304,0.1417,0.1479,0.1562,0.1528,0.1283,0.1028,0.0666,0.0487,0.0349,0.0283,0.0337,0.0325,0.0312,0.0271,0.0271,0.0282,0.0282,0.0283,0.0283,0.0284,0.0592,0.0647,0.074,0.0885,0.1008,0.1182,0.1292,0.1452,0.1608,0.1711,0.1684,0.1597,0.1336,0.0855,0.0567,0.0268,0.0288,0.0174,0.0181,0.0187,0.0183,0.0165,0.0106,0.0106,0.0105,0.0105,0.0105,0,0.0675,0.0722,0.0833,0.1001,0.1135,0.1193,0.1415,0.152,0.168,0.1742,0.1751,0.1439,0.1167,0.0865,0.0415,0.0142,0.0142,0.0058,0.0131,0.014,0.0149,0.0145,0.0056,0.0055,0.0054,0.0053,0,0,0.0726,0.0822,0.0863,0.1074,0.1184,0.1339,0.1455,0.1598,0.1684,0.1712,0.1646,0.1572,0.1228,0.0889,0.0549,0.0303,0.0277,0.0246,0.0314,0.045,0.0461,0.0243,0.025,0,0,0,0,0]}],[{"header":{"parameterUnit":"m.s-1","parameterCategory":2,"la1":30.2991,"la2":30.254,"lo1":-89.0895,"lo2":-89.0444,"dy":0.0017,"dx":0.0017,"nx":28,"ny":28,"refTime":"2025-07-18T03:00:00:Z","depth":"4","parameterNumber":2,"parameterNumberName":"U-component_of_CURRENTS"},"data":[0,0,0,0,0,0,0,0,0,0,0,0,0,0,0,0,0,0,0,0,0,0,0,0,0,0,0,0,0,0,0,0,0,0,0,0,0,0,0,0,0,0,0,0,0,0,0,0,0,0,0,0,0,0,0,0,0,0,0.1059,0.106,0,0.1087,0.1087,0.1087,0.112,0.1121,0.1122,0.1122,0.1231,0.1233,0.1235,0,0,0,0,0,0,0,0,0,0,0,0,0,0.1034,0.1034,0.1059,0.106,0.1061,0.1087,0.1087,0.1087,0.112,0.1121,0.1122,0.1123,0.123,0.1232,0.1235,0,0,0,0,0,0,0,0,0,0,0,0,0,0.1048,0.1034,0.1059,0.1083,0.1086,0.1087,0.1087,0.1087,0.1119,0.1121,0.1122,0.1123,0.1229,0.1232,0.1235,0.1229,0,0,0.1245,0.1246,0,0,0,0,0,0,0,0,0.1047,0.1049,0.1079,0.1082,0.1085,0.1105,0.1118,0.114,0.1119,0.1102,0.1122,0.1124,0.1198,0.1203,0.1199,0.1234,0.1238,0.1245,0.1247,0.1248,0.1249,0,0,0,0,0,0,0,0.1046,0.1048,0.1066,0.108,0.1083,0.1093,0.1096,0.1122,0.1141,0.1104,0.1108,0.1116,0.1199,0.1196,0.1202,0.124,0.1245,0.1248,0.125,0.1251,0.138,0.1381,0,0,0,0,0,0,0.1049,0.1047,0.1066,0.1068,0.1073,0.1092,0.1095,0.1094,0.1139,0.1148,0.1115,0.1118,0.119,0.1198,0.1206,0.1299,0.1248,0.1251,0.1253,0.1378,0.138,0.1382,0,0,0,0,0,0,0.1048,0.105,0.1064,0.1062,0.1065,0.1092,0.1089,0.1094,0.1111,0.1147,0.1157,0.1132,0.1191,0.1202,0.1262,0.13,0.1253,0.1255,0.1376,0.1379,0.1381,0.1423,0,0,0,0,0,0,0.1047,0.1049,0.1056,0.1061,0.1065,0.1078,0.1089,0.1093,0.1116,0.112,0.1164,0.1174,0.1193,0.1258,0.1265,0.1304,0.1258,0.1374,0.1377,0.138,0.142,0.1427,0.1432,0,0,0,0,0,0.1046,0.1038,0.1056,0.1059,0.1071,0.1078,0.1081,0.1102,0.1115,0.1122,0.1167,0.1174,0.1282,0.1261,0.127,0.131,0.1373,0.1376,0.138,0.1417,0.1425,0.1432,0,0,0,0,0,0,0.1027,0.1041,0.1061,0.1058,0.1079,0.1086,0.1096,0.1109,0.1144,0.1162,0.1192,0.1205,0.1276,0.1283,0.1259,0.1356,0.1329,0.1334,0.1354,0.1362,0.1368,0.1345,0.126,0,0,0,0,0,0.1028,0.1033,0.105,0.1056,0.1065,0.1085,0.1095,0.1112,0.1141,0.1157,0.1191,0.1237,0.129,0.1318,0.1358,0.1403,0.1423,0.1436,0.1442,0.1447,0.1435,0.1537,0.1552,0.1393,0.1393,0.1393,0,0,0.1023,0.1035,0.1039,0.1055,0.1072,0.1091,0.1094,0.1114,0.1138,0.1165,0.1215,0.1262,0.1309,0.1372,0.1402,0.1386,0.1497,0.1452,0.1456,0.144,0.1543,0.1558,0.1572,0.1395,0.1395,0.1395,0,0,0.1011,0.1029,0.1029,0.1048,0.1082,0.1102,0.1113,0.1136,0.1156,0.12,0.1246,0.132,0.1366,0.1427,0.1458,0.1521,0.1532,0.1531,0.1542,0.1643,0.1657,0.167,0.1689,0.1703,0.153,0.153,0.153,0,0.101,0.1014,0.1033,0.1044,0.107,0.1111,0.1129,0.115,0.1195,0.1231,0.1223,0.1355,0.1395,0.1503,0.1518,0.1538,0.1563,0.1511,0.1652,0.1665,0.1678,0.1695,0.171,0.1533,0.1532,0.1532,0.1532,0,0.1002,0.1014,0.1018,0.1057,0.1087,0.1108,0.1151,0.1189,0.1223,0.1259,0.1358,0.1415,0.1509,0.1526,0.1532,0.1648,0.1625,0.1654,0.1632,0.1696,0.1709,0.1724,0.1536,0.1535,0.1535,0.1534,0,0,0.0976,0.1005,0.1012,0.1029,0.1098,0.1114,0.1178,0.1245,0.1307,0.1349,0.1437,0.1513,0.1569,0.1607,0.1653,0.1703,0.1801,0.1699,0.1704,0.1714,0.1968,0.1809,0.1809,0.1863,0.1867,0.187,0.1933,0,0.0971,0.0983,0.1015,0.1052,0.1065,0.1137,0.1202,0.1278,0.1343,0.1439,0.1514,0.162,0.1597,0.1669,0.1724,0.1805,0.1845,0.1776,0.1907,0.1908,0.1759,0.1824,0.1881,0.1944,0.1948,0.195,0.1952,0,0.0967,0.097,0.1002,0.1056,0.1075,0.1121,0.125,0.1318,0.1467,0.152,0.1638,0.1711,0.1832,0.1798,0.194,0.19,0.1928,0.1947,0.1953,0.1796,0.1778,0.1874,0.1979,0.1977,0.1975,0.1973,0.1971,0,0.0954,0.0969,0.0998,0.1016,0.1091,0.1137,0.121,0.1354,0.1436,0.1609,0.1685,0.1834,0.1939,0.2005,0.2046,0.2022,0.2158,0.216,0.2025,0.2012,0.2117,0.2103,0.2244,0.2244,0.2244,0.2244,0.2244,0,0.0947,0.0955,0.0986,0.1004,0.1047,0.1133,0.1243,0.133,0.1505,0.1617,0.1751,0.1842,0.1997,0.2089,0.2097,0.2094,0.2227,0.202,0.2032,0.2127,0.2114,0.2125,0.2111,0.2246,0.2246,0.2245,0.2245,0,0.0928,0.0953,0.098,0.104,0.1048,0.1104,0.1236,0.1322,0.149,0.1645,0.1712,0.1903,0.2015,0.2102,0.2225,0.2159,0.2176,0.2137,0.219,0.2206,0.1938,0.1925,0.2001,0.1996,0.1992,0.1989,0.1986,0,0.089,0.0911,0.0994,0.1005,0.1025,0.1097,0.1155,0.1308,0.1401,0.1645,0.1707,0.1887,0.1985,0.203,0.2117,0.2137,0.2103,0.2086,0.2021,0.1915,0.1921,0.1914,0.1907,0.1979,0.1978,0.1977,0.1976,0,0.0805,0.0891,0.0937,0.0989,0.1023,0.1055,0.114,0.1192,0.1396,0.154,0.1682,0.1761,0.1876,0.1957,0.1989,0.199,0.2091,0.2043,0.2051,0.199,0.189,0.1899,0.1896,0.1962,0.1964,0.1965,0.1966,0,0.0752,0.0794,0.09,0.0943,0.0983,0.0997,0.105,0.114,0.125,0.1506,0.1541,0.1715,0.1873,0.1878,0.1901,0.1901,0.1864,0.1792,0.1812,0.1829,0.1738,0.1584,0.1575,0,0,0,0,0,0.0671,0.0737,0.0803,0.0865,0.0928,0.0947,0.1028,0.11,0.1264,0.1331,0.1443,0.1539,0.162,0.1701,0.1666,0.1781,0.1843,0.1726,0.1764,0.1884,0.19,0.1807,0,0,0,0,0,0,0.0623,0.0694,0.0789,0.0794,0.0824,0.0864,0.0915,0.1023,0.107,0.1249,0.1309,0.1438,0.1538,0.1643,0.1643,0.1659,0.1644,0.1824,0.1819,0.1875,0.189,0.1903,0.1812,0,0,0,0,0]},{"header":{"parameterUnit":"m.s-1","parameterCategory":2,"la1":30.2991,"la2":30.254,"lo1":-89.0895,"lo2":-89.0444,"dy":0.0017,"dx":0.0017,"nx":28,"ny":28,"refTime":"2025-07-18T03:00:00:Z","depth":"4","parameterNumber":3,"parameterNumberName":"V-component_of_CURRENTS"},"data":[0,0,0,0,0,0,0,0,0,0,0,0,0,0,0,0,0,0,0,0,0,0,0,0,0,0,0,0,0,0,0,0,0,0,0,0,0,0,0,0,0,0,0,0,0,0,0,0,0,0,0,0,0,0,0,0,0,0,0.0104,0.0103,0,0.0078,0.0078,0.0077,0.0053,0.0053,0.0053,0.0053,0.0032,0.0032,0.0031,0,0,0,0,0,0,0,0,0,0,0,0,0,0.01,0.01,0.0104,0.0103,0.0103,0.0078,0.0078,0.0077,0.0053,0.0053,0.0053,0.0052,0.0032,0.0032,0.0031,0,0,0,0,0,0,0,0,0,0,0,0,0,0.009,0.01,0.0104,0.0089,0.0087,0.0078,0.0078,0.0077,0.0053,0.0053,0.0053,0.0052,0.0032,0.0032,0.0031,0.0035,0,0,0.003,0.0029,0,0,0,0,0,0,0,0,0.0091,0.009,0.0091,0.009,0.0088,0.0069,0.0069,0.0063,0.0053,0.0065,0.0053,0.0052,0.0046,0.0044,0.0039,0.0034,0.0033,0.003,0.0029,0.0029,0.0029,0,0,0,0,0,0,0,0.0091,0.0091,0.0093,0.0091,0.0089,0.0072,0.0071,0.0067,0.0057,0.0064,0.0063,0.0061,0.0045,0.0039,0.0038,0.0033,0.003,0.0029,0.0029,0.0029,0.0017,0.0017,0,0,0,0,0,0,0.0098,0.0092,0.0094,0.0092,0.0089,0.0073,0.0071,0.0075,0.0057,0.0054,0.0061,0.006,0.004,0.0039,0.0037,0.0048,0.0029,0.0029,0.0028,0.0017,0.0017,0.0017,0,0,0,0,0,0,0.0098,0.0099,0.0095,0.0091,0.009,0.0074,0.0078,0.0075,0.0073,0.0055,0.0052,0.0064,0.004,0.0038,0.0031,0.0046,0.0028,0.0028,0.0017,0.0017,0.0017,0.0064,0,0,0,0,0,0,0.0098,0.0099,0.0103,0.0092,0.009,0.0097,0.0078,0.0074,0.0073,0.0071,0.0056,0.0053,0.004,0.0032,0.003,0.0045,0.0027,0.0017,0.0017,0.0017,0.0062,0.0066,0.0068,0,0,0,0,0,0.0098,0.0112,0.0104,0.0104,0.0097,0.0098,0.0096,0.0082,0.0073,0.0078,0.006,0.0054,0.0031,0.0031,0.003,0.0045,0.0017,0.0017,0.0017,0.0061,0.0065,0.0068,0,0,0,0,0,0,0.0108,0.0111,0.0101,0.0113,0.0107,0.0094,0.0098,0.0088,0.0077,0.0075,0.0055,0.0051,0.0048,0.0038,0.0039,0.0039,0.0023,0.0023,0.0057,0.006,0.0063,0.0072,0.0027,0,0,0,0,0,0.0113,0.0127,0.0119,0.0127,0.0128,0.0113,0.0111,0.0103,0.0092,0.0088,0.0078,0.0063,0.0047,0.0047,0.0032,0.0039,0.001,0.0045,0.0048,0.0051,0.0056,0.0012,0.0011,0.0017,0.0017,0.0017,0,0,0.0116,0.0121,0.0126,0.013,0.0125,0.0135,0.0111,0.0116,0.012,0.0088,0.0094,0.0073,0.0048,0.0048,0.0047,0.0043,0.0035,0.0051,0.0054,0.0057,0.0012,0.0011,0.001,0.0017,0.0017,0.0017,0,0,0.0139,0.0137,0.0158,0.016,0.0161,0.0153,0.0158,0.0151,0.0144,0.0147,0.0116,0.0104,0.0095,0.0076,0.0065,0.0077,0.0047,0.0073,0.0105,0.0062,0.0062,0.0061,0.0029,0.0024,0.0082,0.0082,0.0082,0,0.0143,0.0168,0.0162,0.0183,0.0189,0.0166,0.0186,0.0176,0.0167,0.0162,0.0157,0.0129,0.011,0.0098,0.0097,0.0086,0.0055,0.0097,0.0067,0.0065,0.0063,0.003,0.0025,0.0084,0.0084,0.0083,0.0083,0,0.018,0.0199,0.0213,0.0233,0.0237,0.0252,0.024,0.024,0.0231,0.0218,0.0208,0.018,0.0166,0.0155,0.013,0.0111,0.0091,0.0071,0.0061,0.0066,0.0031,0.0024,0.0087,0.0086,0.0086,0.0085,0,0,0.0194,0.0233,0.0236,0.0257,0.0267,0.0275,0.0282,0.0279,0.0286,0.027,0.0278,0.0243,0.0227,0.0212,0.0181,0.0144,0.0104,0.0106,0.0103,0.008,0.0011,0.0021,0.0015,0.0073,0.0072,0.0071,-0.0006,0,0.0224,0.0273,0.0283,0.0324,0.0349,0.0337,0.0357,0.0348,0.0331,0.0332,0.0293,0.0291,0.0248,0.0251,0.0205,0.0127,0.0088,0.0127,0.0004,0.0001,0.0014,0.0008,0.0068,-0.0011,-0.0013,-0.0014,-0.0015,0,0.0258,0.0291,0.0338,0.0385,0.0395,0.0419,0.0434,0.0449,0.0431,0.0422,0.0398,0.0362,0.0317,0.0284,0.0159,0.0183,0.0103,0.004,0.0035,0.0024,-0.0,-0.0021,-0.0027,-0.0026,-0.0025,-0.0024,-0.0024,0,0.0273,0.0328,0.0368,0.0382,0.043,0.0454,0.0482,0.048,0.0502,0.0481,0.0489,0.0419,0.0407,0.0288,0.0157,0.0153,0.0012,-0.0007,-0.0072,-0.0072,-0.0079,-0.0077,-0.0097,-0.0097,-0.0097,-0.0097,-0.0097,0,0.0307,0.0345,0.0386,0.041,0.0472,0.05,0.056,0.0561,0.0591,0.0617,0.0551,0.0547,0.0404,0.0305,0.0172,0.0034,0.0023,-0.0067,-0.0093,-0.0057,-0.0051,-0.0083,-0.008,-0.01,-0.0099,-0.0099,-0.0098,0,0.0333,0.0356,0.0409,0.0462,0.0485,0.0536,0.0626,0.0669,0.0686,0.0716,0.0719,0.0645,0.0518,0.0361,0.0173,0.0076,-0.0073,-0.0121,-0.0062,-0.0084,-0.0132,-0.0126,-0.0193,-0.0193,-0.0194,-0.0194,-0.0194,0,0.0358,0.0387,0.0435,0.0473,0.0508,0.0591,0.0656,0.0711,0.0755,0.0765,0.0781,0.0688,0.061,0.037,0.0192,-0.0046,-0.0082,-0.0153,-0.0151,-0.0123,-0.0142,-0.0136,-0.013,-0.0195,-0.0195,-0.0195,-0.0195,0,0.0404,0.0411,0.0442,0.0508,0.0576,0.066,0.0751,0.0793,0.0852,0.0859,0.0834,0.0715,0.0581,0.0384,0.0206,0.0027,-0.0106,-0.0156,-0.0157,-0.0156,-0.0126,-0.0143,-0.0137,-0.0196,-0.0196,-0.0195,-0.0195,0,0.0431,0.045,0.0474,0.0539,0.0621,0.0706,0.0759,0.0825,0.0878,0.0891,0.0874,0.0731,0.0653,0.0422,0.0245,0.0084,0.0042,-0.0012,-0.0021,-0.0022,0.0047,0.0111,0.0094,0,0,0,0,0,0.0458,0.0469,0.0511,0.0579,0.0662,0.0713,0.0807,0.0859,0.0907,0.0901,0.0898,0.0769,0.0541,0.0444,0.0286,0.022,-0.0002,0.0029,-0.0073,-0.0201,-0.02,-0.0147,0,0,0,0,0,0,0.0465,0.0502,0.0498,0.0597,0.066,0.0764,0.0828,0.0867,0.0873,0.0887,0.0773,0.0727,0.0504,0.0629,0.0282,0.0233,0.0147,-0.0075,-0.0078,-0.0201,-0.02,-0.02,-0.0145,0,0,0,0,0]}]]